Home > Time Zones > World Clock > Weather > Peru > Lima > Past weeks

Flag for Peru Weather past 2 weeks in Lima, Lima, Peru

Now
70 °F

Passing clouds.


Feels Like: 70 °F
Forecast: 66 / 78 °F
Wind: 9 mph from South

Location: Lima-Callao / Aerop. Internacional Jorgechavez

Current Time: Apr 21, 2015 at 11:20:20 PM

Latest Report: Apr 21, 2015 at 10:00 PM


Visibility: N/A

Pressure: 29.89 "Hg

Humidity: 88%

Dew point: 66 °F

Location of LimaLocation

Historic Weather in Lima — Graph

°F

Lima temperature yesterday

Maximum temperature yesterday: 75 °F (at 1:00 PM)
Minimum temperature yesterday: 66 °F (at 5:00 AM)
Average temperature yesterday: 70 °F

Past Weeks' High & Low Weather Summary

 TemperatureHumidityPressure
High81 °F (Apr 13, 1:00 PM)94% (Apr 7, 5:00 AM)29.98 "Hg (Apr 7, 5:00 AM)
Low64 °F (Apr 10, 6:00 AM)62% (Apr 15, 1:00 PM)29.74 "Hg (Apr 7, 3:00 PM)
Average71 °F86%29.88 "Hg
* Reported Apr 6 10:00 PM — Apr 21 10:00 PM, Lima, Weather by CustomWeather, © 2015

Note: Actual official high and low records may vary slightly from our data, if they occured in-between our weather recording intervals... More about our weather records

Advertising

Lima weather history for previous 24 hours

 ConditionsComfort  
Time TempWeatherWind HumidityBarometerVisibility
10:00 PM
Tue, Apr 21
70 °FPassing clouds.9 mph88%29.89 "HgN/A
9:00 PM70 °FClear.9 mph83%29.89 "Hg10 mi
7:00 PM70 °FClear.9 mph83%29.86 "Hg10 mi
6:00 PM70 °FClear.10 mph83%29.86 "Hg10 mi
5:00 PM72 °FSunny.9 mph78%29.83 "Hg10 mi
4:00 PM73 °FSunny.9 mph74%29.83 "Hg10 mi
3:00 PM73 °FSunny.6 mph78%29.83 "Hg10 mi
2:00 PM72 °FScattered clouds.7 mph83%29.86 "Hg4 mi
1:00 PM72 °FScattered clouds.7 mph83%29.89 "Hg4 mi
12:00 PM72 °FFog.8 mph83%29.89 "Hg3 mi
11:00 AM72 °FFog.7 mph83%29.92 "Hg3 mi
10:00 AM72 °FFog.6 mph83%29.92 "Hg3 mi
9:00 AM70 °FLow clouds.3 mph88%29.92 "Hg4 mi
8:00 AM68 °FMore clouds than sun.5 mph94%29.92 "HgN/A
7:00 AM68 °FOvercast.3 mph94%29.92 "HgN/A
6:00 AM68 °FOvercast.7 mph88%29.89 "HgN/A
5:00 AM68 °FLow clouds.6 mph94%29.89 "HgN/A
4:00 AM68 °FMostly cloudy.7 mph94%29.86 "HgN/A
3:00 AM68 °FPassing clouds.7 mph94%29.86 "HgN/A
2:00 AM68 °FLow clouds.8 mph94%29.86 "HgN/A
1:00 AM70 °FLow clouds.12 mph88%29.89 "HgN/A
12:00 AM70 °FLow clouds.14 mph88%29.92 "HgN/A
11:00 PM
Mon, Apr 20
70 °FPassing clouds.16 mph88%29.92 "HgN/A
Weather by CustomWeather, © 2015

See weather overviewHow to use our weather pages